User: anonymous   Login
Location: Unspecified
(0.0000°N, 0.0000°E)
Time: 03:04:46
(UTC+00:00)
Language:

NANOSAT C BR1 - Orbit

View from above orbital plane
View from above orbital plane
View from above satellite
View from above satellite

Ground track
Ground track

The orbit data is extracted from the following two-line orbital elements,

1 40024U 14033Q   18116.30738352  .00000427  00000-0  50751-4 0  9994
2 40024  97.9109  33.2766 0012334 358.9264   1.1925 14.89536308209156
Epoch (UTC): 26 April 2018 07:22:37
Eccentricity: 0.0012334
inclination: 97.9109°
perigee height: 591 km
apogee height: 608 km
right ascension of ascending node: 33.2766°
argument of perigee: 358.9264°
revolutions per day: 14.89536308
mean anomaly at epoch: 1.1925°
orbit number at epoch: 20915

The dashed part of the orbit path shows where the satellite is in the earth's shadow,  

DLR